User: anonymous
Location: Deer Lake
(49.1830°N, 57.4330°W)
Time: 04:34:39
(UTC-02:-30)
Language:

Cosmos 1707 - Orbit

View from above orbital plane
View from above orbital plane
View from above satellite
View from above satellite

Ground track
Ground track

The orbit data is extracted from the following two-line orbital elements,

1 16326U 85113A   14107.87784321  .00006085  00000-0  39433-3 0  8879
2 16326 082.5141 260.6631 0009376 296.5674 063.4593 15.07925224542692
Epoch (UTC): 17 April 2014 21:04:05
Eccentricity: 0.0009376
inclination: 82.5141°
perigee height: 536 km
apogee height: 549 km
right ascension of ascending node: 260.6631°
argument of perigee: 296.5674°
revolutions per day: 15.07925224
mean anomaly at epoch: 63.4593°
orbit number at epoch: 54269

The dashed part of the orbit path shows where the satellite is in the earth's shadow,  

DLR